Temperature
16 16 16 15 15 15 15 15 16 16 16 16 16 16 16 16 16 16 16 16 16 16 16 16 16 16 17 17 17 17 17 17 17 17 17 17 18 18 18 18 18 18 18
15 15 15 15 15 15 15 15 15 15 16 16 15 15 15 16 15 15 15 16 16 16 16 16 16 16 16 16 16 16 17 17 17 17 17 17 17 17 18 17 18 18 18
15 15 15 15 15 15 15 15 15 15 15 15 15 15 15 15 15 15 15 15 15 16 16 16 16 16 16 16 16 16 17 17 17 17 17 17 17 17 17 17 17 17 17
15 15 15 15 15 15 15 15 15 15 15 15 15 15 15 15 15 15 15 15 15 15 15 16 16 16 16 16 16 16 16 16 17 17 17 17 17 17 17 17 17 17 17
15 15 15 15 15 15 15 15 15 15 15 15 15 15 15 15 15 15 15 15 15 15 15 15 16 16 16 16 16 16 16 16 16 17 17 17 17 17 17 17 17 17 17
15 15 15 15 15 15 15 15 15 15 15 15 15 15 15 15 15 15 15 15 15 15 15 15 15 15 16 16 16 16 16 16 16 16 16 16 16 17 17 17 17 17 17
14 15 15 15 15 15 15 15 15 15 15 15 15 15 15 15 15 15 15 15 15 15 15 15 15 15 15 15 16 16 16 16 16 16 16 16 16 16 17 17 17 17 17
14 14 15 15 15 15 15 15 15 15 15 15 15 16 15 15 14 14 14 14 15 15 15 14 15 15 15 15 15 15 16 16 16 16 16 16 16 16 16 16 16 16 16
15 15 15 15 15 15 15 15 14 15 15 15 15 15 16 16 15 14 14 14 14 14 14 14 14 14 14 15 15 15 15 15 16 16 16 16 16 16 16 16 16 16 16
15 15 15 15 15 15 15 15 15 14 15 15 15 15 15 15 15 15 14 14 14 14 14 14 14 14 14 15 15 15 15 15 15 15 15 16 16 16 16 16 16 16 16
15 15 15 15 15 15 15 15 15 15 15 15 15 15 15 15 15 15 15 14 14 14 14 14 14 14 14 14 14 15 15 15 15 15 15 15 15 15 15 16 16 16 16
15 15 15 15 15 15 15 15 15 15 15 15 15 15 15 15 15 15 15 14 14 14 13 14 14 14 14 14 14 14 15 15 15 15 15 15 15 15 15 15 16 16 16
15 15 15 15 15 15 15 15 15 15 15 15 15 15 14 14 14 15 15 14 14 14 13 13 13 13 13 14 14 14 14 14 15 15 15 15 15 15 15 15 15 15 15
15 15 15 15 15 15 15 15 15 15 15 15 15 15 15 14 14 14 14 14 14 14 14 13 13 13 13 13 14 14 14 14 14 14 14 15 14 14 15 15 15 15 15
15 15 15 15 15 15 15 15 15 15 15 15 15 15 15 14 14 14 14 14 14 15 14 13 13 13 13 13 13 13 13 14 14 14 14 14 14 14 14 14 14 15 15
15 15 15 15 15 15 15 15 15 15 15 15 15 14 14 14 14 14 14 14 14 14 14 13 13 13 13 13 13 13 13 13 14 14 14 14 14 14 14 14 14 14 14
15 15 15 15 15 15 14 15 14 14 14 14 14 14 14 14 14 14 14 14 14 14 14 13 13 13 13 13 13 13 13 13 13 13 13 13 13 13 13 13 13 14 14
15 15 15 15 15 15 14 14 14 14 14 14 14 14 14 14 14 14 14 14 14 13 13 13 12 12 12 13 13 12 12 12 12 13 13 13 13 13 13 13 13 13 13
15 15 15 15 15 15 15 14 14 14 14 14 14 14 14 14 14 14 14 13 13 13 13 13 13 12 12 12 12 12 12 12 12 12 12 13 12 12 12 12 12 12 12
16 15 15 15 15 15 15 14 14 14 14 14 14 14 14 14 13 13 13 13 13 13 13 13 12 12 12 12 12 12 12 12 12 12 12 12 12 12 12 12 12 12 12
16 16 15 15 15 15 15 15 14 14 14 14 14 14 14 14 14 14 13 13 13 13 13 12 12 12 12 12 12 12 12 11 11 11 11 11 11 11 11 11 11 11 11
16 16 15 15 15 15 15 15 15 14 14 14 14 14 13 14 14 14 14 13 13 13 12 12 12 12 12 12 12 11 11 11 11 11 11 11 11 11 11 10 11 11 11
16 16 16 15 15 15 15 15 15 14 14 14 14 13 13 14 13 13 13 13 13 13 13 12 12 12 12 11 11 11 11 11 11 11 11 10 10 10 10 10 11 11 11
16 16 16 16 15 15 15 15 15 14 14 14 14 13 13 13 13 13 13 13 12 13 13 12 12 12 12 11 11 11 11 10 10 10 10 10 10 10 10 10 10 10 10
16 16 16 16 15 15 15 15 15 14 14 14 14 13 13 13 13 13 13 12 12 12 12 12 12 12 12 12 11 11 10 10 10 10 10 9 10 9 9 9 9 10 10
16 16 16 15 15 15 15 15 14 14 14 14 14 13 13 13 13 13 13 12 12 12 12 12 12 12 11 11 11 11 10 10 10 9 9 9 9 9 9 9 9 9 9
Wind_Speed
3 3 3 3 3 3 3 3 4 5 5 6 6 6 6 6 6 7 8 11 11 10 10 10 10 10 11 11 11 12 12 12 12 12 13 14 13 11 11 12 12 9 5
4 3 4 3 3 3 4 3 5 5 5 6 6 7 7 7 7 6 7 9 12 13 12 12 12 12 12 12 12 13 13 13 13 13 13 14 15 14 14 14 14 13 10
4 4 3 4 4 4 4 4 5 5 5 6 7 7 7 7 7 7 7 7 9 12 14 14 14 14 13 12 13 14 14 14 14 14 13 14 14 15 15 15 15 15 12
5 5 4 4 4 3 4 4 3 5 5 5 6 6 6 6 7 7 8 8 7 7 12 14 15 14 14 14 14 14 15 15 15 14 14 14 14 15 15 15 16 15 14
5 5 4 4 4 4 3 3 3 4 5 5 6 6 6 6 6 7 8 9 9 8 8 11 13 15 15 16 15 15 15 15 16 16 15 15 14 15 15 15 15 15 15
5 5 4 4 4 4 3 4 4 4 4 4 6 6 6 6 6 6 6 8 8 9 9 8 8 11 14 16 16 16 16 15 16 16 16 16 15 14 15 15 14 14 14
5 5 4 5 4 4 4 4 4 5 5 4 5 5 6 7 6 6 6 6 8 8 9 9 8 8 8 13 17 17 16 16 16 16 16 15 15 14 14 14 14 13 13
6 5 5 4 4 4 4 4 3 3 4 2 2 3 3 4 5 6 5 5 6 7 8 9 9 9 9 8 13 17 17 16 15 16 15 15 15 14 13 14 14 14 12
6 6 5 5 4 3 3 3 3 3 3 2 2 1 1 2 3 4 6 6 6 6 6 8 9 10 9 9 10 14 16 16 16 16 15 16 16 15 14 14 13 13 12
6 5 5 5 4 4 3 3 2 2 1 2 2 2 2 2 1 3 4 5 6 7 7 7 8 9 9 9 11 15 16 15 15 15 15 15 15 15 14 14 13 13 13
5 6 5 4 4 4 4 4 3 2 1 1 1 2 2 2 1 2 3 3 5 6 6 6 7 8 9 10 11 14 15 15 15 14 15 15 15 14 14 14 13 13 13
4 5 5 4 4 4 4 3 3 3 3 2 2 1 1 1 2 2 3 4 4 4 5 6 6 7 8 9 12 13 14 15 14 14 14 14 14 14 14 14 14 13 13
4 4 4 4 4 4 4 4 3 3 3 3 3 2 2 3 2 2 3 4 3 3 4 5 6 6 7 7 9 10 13 14 14 14 14 15 15 14 14 14 14 14 13
4 4 5 5 5 5 4 4 3 4 3 4 4 4 3 4 3 3 2 3 3 3 3 4 4 6 6 7 8 7 10 13 14 14 14 14 14 15 14 14 14 14 13
4 4 4 5 5 4 4 4 4 5 5 5 5 5 4 4 3 3 2 1 1 2 3 3 3 5 5 6 7 7 9 12 12 13 13 13 14 14 14 14 14 14 14
4 4 4 4 5 4 5 4 5 4 5 5 4 5 4 4 3 3 2 2 1 1 2 3 3 3 5 5 6 7 7 9 12 12 12 12 12 13 13 13 14 14 14
5 4 3 4 4 4 4 4 4 4 5 5 5 5 5 4 3 3 2 2 2 2 3 3 3 3 4 5 5 5 5 6 9 11 12 11 11 11 11 12 13 13 13
4 4 4 4 4 4 4 4 4 4 5 5 5 5 5 4 4 3 2 3 3 3 3 3 3 3 4 4 4 4 5 6 7 10 10 11 11 10 10 10 11 12 12
5 5 5 4 4 4 4 4 4 4 4 4 4 4 4 4 3 3 3 3 3 3 2 2 3 2 2 3 2 3 4 4 5 6 7 9 9 10 10 10 10 10 10
6 5 5 4 4 4 4 4 4 4 4 4 4 3 3 3 3 3 3 3 2 3 2 2 2 2 2 2 2 2 2 3 3 4 5 4 5 6 7 7 8 9 9
6 5 5 5 4 3 3 3 3 3 3 4 3 3 4 5 6 4 2 2 2 2 2 1 1 1 1 1 2 2 2 2 2 3 3 3 3 3 4 4 5 7 7
6 6 6 5 5 3 4 1 1 3 3 3 3 3 4 4 4 4 4 5 4 1 1 0 0 1 2 2 2 2 2 2 2 2 3 3 3 3 3 4 5 5 5
7 6 6 5 5 5 7 5 2 2 2 2 2 2 2 2 3 3 5 5 2 3 3 3 2 2 2 2 2 2 2 3 3 3 4 3 3 3 3 3 3 3 4
7 6 6 6 5 5 7 7 6 5 3 3 2 2 2 2 2 1 2 2 1 1 1 1 2 2 2 2 3 3 3 3 2 1 2 3 3 4 4 3 1 1 2
7 7 6 6 6 6 8 8 7 5 4 4 3 2 2 3 4 1 2 2 2 1 3 2 3 2 3 3 4 3 3 3 3 2 2 3 4 5 5 3 2 2 3
7 6 6 6 7 6 9 10 9 5 5 5 4 4 2 2 3 3 4 3 3 2 2 3 3 4 3 1 2 3 3 4 4 3 2 3 4 5 4 3 4 5 5
Wind_Direction
62 66 70 72 69 74 89 81 91 91 87 89 82 77 79 76 75 75 80 65 56 56 54 51 48 45 44 43 40 37 33 29 28 26 25 24 28 35 37 33 31 34 46
61 59 71 69 67 68 74 89 91 95 91 87 84 78 73 76 77 77 78 85 72 59 54 53 50 44 43 43 42 39 36 32 32 32 32 34 37 41 40 36 36 38 48
56 57 60 71 69 83 98 89 96 98 98 97 89 81 74 66 72 73 69 69 79 74 61 52 49 44 43 43 42 41 39 36 35 37 39 41 40 42 42 39 41 42 49
55 59 58 69 70 83 99 100 105 104 97 94 87 80 79 69 66 67 70 69 61 65 71 60 53 47 45 43 42 41 40 39 38 42 45 44 43 43 44 44 45 45 50
55 66 58 64 78 82 87 102 103 103 100 98 93 83 76 70 64 60 66 67 64 59 67 77 68 54 45 42 41 41 41 41 42 46 47 45 45 45 46 47 46 47 53
54 67 75 74 78 86 88 97 102 99 103 108 98 86 75 72 65 58 62 67 60 56 54 55 66 66 55 45 40 40 39 41 44 45 45 44 45 45 46 47 47 50 56
59 67 68 72 69 82 85 104 114 120 115 115 114 103 89 73 67 63 59 61 63 56 54 51 50 50 59 59 44 39 37 41 43 44 44 43 44 46 46 45 47 52 58
59 66 73 82 82 86 91 97 109 118 115 118 140 144 131 102 68 59 63 59 56 59 54 50 51 49 43 49 52 41 36 38 42 42 42 41 43 44 45 44 51 50 57
62 62 65 71 75 85 92 95 110 118 127 111 54 11 107 106 109 72 59 60 53 51 52 48 49 48 47 48 47 42 37 38 40 41 41 42 42 42 44 44 46 50 56
69 63 67 67 75 74 86 91 91 100 115 117 93 40 42 93 133 121 84 69 61 54 48 45 44 46 45 51 53 43 37 39 39 39 41 43 43 43 45 45 49 54 56
71 68 66 70 73 74 74 76 79 67 76 61 77 102 93 97 77 120 113 95 76 60 51 44 45 42 44 49 48 42 40 40 39 38 40 42 42 43 45 48 51 55 59
86 78 71 71 73 74 74 75 76 74 63 62 63 82 100 88 112 100 114 107 88 70 63 52 46 43 43 50 50 43 43 41 41 41 41 42 41 42 44 48 52 56 60
95 84 80 76 73 73 75 77 78 74 79 72 63 66 66 67 83 98 118 113 100 90 75 63 47 44 44 49 50 41 50 43 43 44 45 45 44 44 45 46 50 54 58
97 93 87 82 80 79 81 76 72 73 76 80 75 75 78 77 83 93 103 120 118 104 77 68 54 45 40 48 46 41 54 47 44 44 46 46 45 45 46 47 49 51 54
112 109 101 96 88 83 79 82 75 78 78 77 83 86 80 80 79 79 80 59 79 116 92 62 53 42 42 48 31 46 54 52 48 47 46 47 47 47 48 50 50 51 51
124 122 117 109 105 101 92 81 82 78 89 83 79 84 82 88 83 81 69 53 34 69 89 71 62 53 44 54 45 50 61 67 57 50 47 48 49 49 51 53 54 51 50
147 135 122 116 110 108 105 96 88 91 93 96 96 93 87 82 90 84 78 78 67 74 102 96 86 74 66 56 51 48 50 56 62 54 48 47 49 50 52 54 54 53 50
152 144 133 126 114 106 103 104 101 97 91 89 92 95 94 93 85 77 71 80 83 86 105 106 95 71 59 53 49 48 52 55 61 63 53 50 50 51 53 53 52 51 48
164 159 151 143 133 123 119 118 114 107 99 93 92 93 94 99 99 93 86 83 84 86 93 106 85 68 60 50 48 50 58 50 56 68 65 60 55 53 53 52 52 50 47
169 168 161 154 144 140 139 131 124 118 110 104 100 94 86 89 91 102 101 95 95 97 93 93 87 84 69 40 26 28 36 36 30 36 41 51 65 67 65 59 54 48 43
173 169 169 166 158 161 152 150 140 133 125 120 117 106 86 65 44 45 58 91 109 116 112 96 84 73 57 31 12 351 0 355 30 14 358 9 17 28 42 62 57 43 33
180 176 181 176 173 170 129 135 205 157 147 142 135 128 123 120 111 100 62 39 19 24 47 49 2 13 10 11 352 328 335 326 339 5 334 349 349 355 2 15 43 37 24
183 186 190 185 188 166 150 167 206 197 174 167 160 149 134 130 161 147 143 156 108 50 354 318 323 339 332 346 321 317 331 329 328 343 324 323 338 339 344 7 49 22 11
185 190 193 193 191 175 162 172 184 197 189 186 186 183 178 171 152 172 168 160 129 90 33 298 319 338 342 339 314 308 310 296 291 307 315 307 324 320 320 325 42 337 328
189 191 189 194 198 183 167 177 196 194 195 196 194 198 208 190 122 211 214 199 190 155 107 89 37 22 13 348 311 278 284 286 299 313 332 305 311 315 305 292 277 232 273
190 189 189 197 202 201 171 184 210 207 206 199 197 200 185 227 149 215 220 220 228 224 203 176 187 201 224 196 230 273 293 289 299 304 341 310 304 312 302 294 302 294 284
Height
1562 1561 1561 1560 1561 1560 1560 1560 1561 1561 1561 1561 1561 1562 1562 1562 1562 1562 1561 1560 1560 1560 1559 1558 1557 1556 1555 1553 1552 1550 1548 1545 1543 1540 1536 1532 1527 1524 1524 1523 1521 1516 1514
1563 1562 1562 1561 1561 1561 1561 1562 1562 1562 1562 1562 1562 1563 1563 1563 1563 1563 1563 1562 1561 1561 1560 1559 1559 1557 1556 1555 1553 1551 1549 1546 1543 1540 1537 1534 1530 1529 1528 1526 1524 1520 1517
1564 1563 1563 1563 1562 1562 1563 1563 1563 1563 1564 1564 1564 1564 1564 1565 1565 1565 1564 1564 1564 1562 1562 1561 1560 1559 1558 1556 1555 1553 1550 1547 1544 1541 1539 1537 1535 1533 1532 1530 1527 1525 1522
1565 1564 1564 1564 1563 1563 1564 1564 1564 1565 1565 1565 1566 1566 1566 1566 1566 1566 1566 1566 1565 1565 1564 1563 1562 1561 1560 1558 1557 1555 1552 1549 1546 1543 1542 1540 1539 1537 1535 1533 1531 1530 1528
1566 1565 1564 1564 1565 1565 1565 1565 1566 1566 1567 1567 1567 1567 1568 1568 1568 1568 1568 1567 1567 1566 1566 1564 1564 1563 1561 1560 1559 1557 1555 1552 1549 1547 1545 1544 1542 1541 1539 1537 1535 1534 1532
1567 1566 1566 1566 1566 1566 1566 1566 1566 1567 1567 1568 1569 1569 1569 1569 1569 1569 1569 1569 1568 1568 1567 1567 1566 1565 1563 1562 1561 1559 1557 1555 1553 1550 1548 1547 1545 1544 1542 1541 1539 1537 1536
1568 1567 1567 1567 1567 1567 1567 1568 1568 1568 1569 1569 1570 1570 1571 1571 1571 1570 1570 1570 1570 1569 1569 1568 1568 1567 1566 1564 1562 1561 1559 1558 1556 1554 1552 1550 1548 1547 1545 1543 1541 1540 1539
1569 1569 1569 1569 1568 1568 1569 1569 1569 1570 1570 1570 1571 1571 1572 1573 1572 1572 1572 1571 1571 1571 1570 1570 1569 1568 1567 1566 1564 1563 1561 1560 1558 1556 1555 1553 1551 1549 1547 1545 1542 1541 1541
1570 1570 1570 1570 1570 1570 1570 1570 1570 1570 1571 1571 1572 1572 1572 1572 1573 1574 1573 1573 1572 1572 1572 1571 1570 1569 1568 1567 1566 1564 1563 1562 1560 1558 1557 1555 1553 1552 1550 1547 1545 1543 1543
1572 1571 1571 1571 1571 1571 1571 1571 1571 1572 1572 1572 1572 1572 1573 1573 1573 1574 1575 1575 1574 1573 1573 1572 1571 1570 1569 1568 1567 1566 1565 1564 1562 1560 1559 1557 1556 1554 1552 1549 1547 1546 1545
1573 1573 1572 1572 1572 1572 1572 1572 1572 1572 1573 1573 1573 1573 1572 1573 1574 1574 1575 1576 1576 1575 1574 1573 1573 1572 1571 1570 1568 1567 1566 1565 1564 1562 1561 1559 1558 1556 1554 1551 1549 1548 1547
1575 1574 1574 1574 1574 1574 1573 1573 1573 1573 1573 1573 1573 1573 1574 1574 1574 1575 1575 1576 1576 1576 1575 1574 1574 1573 1572 1571 1570 1569 1568 1567 1565 1564 1562 1561 1559 1557 1556 1554 1552 1550 1549
1576 1576 1575 1575 1575 1575 1575 1574 1574 1574 1574 1574 1574 1574 1574 1574 1575 1575 1576 1576 1577 1577 1577 1576 1575 1574 1573 1572 1571 1570 1569 1568 1567 1565 1564 1562 1561 1559 1557 1556 1555 1553 1552
1577 1577 1577 1577 1576 1576 1576 1575 1576 1575 1575 1575 1575 1574 1575 1575 1575 1576 1577 1577 1578 1578 1578 1578 1577 1575 1574 1573 1572 1571 1570 1569 1568 1566 1565 1563 1562 1560 1559 1558 1556 1555 1554
1578 1578 1578 1578 1577 1577 1577 1577 1576 1576 1576 1576 1576 1576 1576 1576 1576 1576 1577 1578 1579 1578 1579 1578 1577 1576 1575 1574 1573 1572 1571 1570 1568 1567 1566 1564 1563 1562 1560 1559 1558 1557 1556
1579 1579 1579 1579 1579 1578 1578 1578 1577 1577 1577 1577 1576 1577 1577 1577 1577 1577 1577 1578 1578 1579 1579 1579 1578 1577 1575 1575 1573 1573 1572 1571 1569 1568 1567 1565 1564 1563 1561 1560 1559 1558 1557
1580 1580 1580 1580 1580 1580 1579 1579 1579 1578 1578 1578 1578 1578 1578 1578 1578 1578 1578 1578 1578 1579 1579 1579 1578 1577 1576 1576 1575 1574 1573 1572 1570 1569 1567 1566 1565 1563 1562 1561 1560 1559 1558
1580 1580 1580 1581 1581 1581 1580 1580 1580 1580 1580 1580 1579 1579 1579 1579 1579 1579 1579 1579 1579 1579 1579 1579 1579 1578 1577 1576 1575 1574 1574 1573 1571 1569 1568 1566 1565 1564 1563 1562 1560 1559 1558
1580 1580 1581 1581 1581 1581 1581 1581 1581 1581 1581 1581 1581 1581 1580 1580 1580 1580 1580 1580 1580 1579 1580 1580 1580 1578 1578 1576 1575 1575 1574 1573 1572 1570 1568 1567 1565 1564 1563 1561 1560 1559 1558
1580 1580 1581 1581 1582 1582 1582 1582 1582 1582 1582 1581 1581 1581 1581 1581 1581 1581 1580 1580 1580 1580 1580 1580 1580 1579 1578 1577 1576 1575 1574 1573 1572 1570 1569 1567 1565 1564 1563 1561 1560 1559 1558
1579 1580 1581 1581 1581 1582 1582 1583 1583 1582 1582 1582 1582 1582 1581 1581 1580 1580 1581 1581 1581 1581 1581 1580 1580 1579 1578 1577 1576 1575 1574 1573 1572 1570 1569 1567 1566 1564 1563 1561 1559 1558 1556
1578 1579 1580 1581 1581 1581 1582 1582 1582 1583 1583 1583 1582 1582 1581 1581 1580 1580 1580 1580 1581 1581 1581 1580 1580 1579 1578 1577 1575 1575 1574 1573 1572 1570 1569 1567 1566 1564 1562 1560 1558 1556 1555
1577 1578 1579 1579 1580 1581 1581 1582 1582 1582 1582 1583 1583 1582 1581 1580 1580 1580 1580 1580 1580 1579 1580 1579 1579 1578 1577 1576 1575 1574 1573 1572 1571 1569 1567 1566 1565 1563 1561 1559 1556 1554 1553
1575 1576 1577 1578 1579 1579 1580 1581 1581 1581 1581 1581 1581 1581 1581 1580 1580 1580 1580 1580 1579 1579 1578 1578 1577 1576 1575 1574 1573 1573 1571 1570 1569 1568 1566 1565 1563 1561 1559 1557 1554 1552 1551
1573 1574 1575 1576 1577 1578 1578 1579 1580 1580 1580 1580 1580 1580 1580 1579 1579 1579 1579 1579 1578 1577 1576 1576 1575 1574 1573 1572 1571 1571 1570 1569 1568 1567 1565 1563 1561 1559 1556 1554 1552 1549 1548
1570 1572 1573 1574 1575 1575 1576 1577 1577 1578 1578 1578 1578 1578 1578 1578 1577 1577 1577 1577 1577 1576 1575 1574 1573 1572 1571 1570 1569 1569 1568 1567 1566 1565 1563 1561 1559 1557 1554 1553 1550 1547 1545